Regional Weather Roundup
Issued by NWS Bismarck, ND

Home | Current Version | Previous Version | Text Only | Print | Product List | Glossary On
Versions: 1 2 3 4 5 6 7 8 9 10 11 12 13 14 15 16 17 18 19 20 21 22 23 24 25 26 27 28 29 30 31 32 33 34 35 36 37 38 39 40 41 42 43 44 45 46 47 48 49 50
000
ASUS43 KBIS 242002
RWRBIS

NWR BROADCAST TEXT
NATIONAL WEATHER SERVICE BISMARCK ND
300 PM CDT SAT SEP 24 2016

NOTE: "FAIR" INDICATES FEW OR NO CLOUDS BELOW 12,000 FEET WITH NO
SIGNIFICANT WEATHER AND/OR OBSTRUCTIONS TO VISIBILITY.


CITY           SKY/WX    TMP DP  RH WIND       PRES   REMARKS
WILLISTON      LGT RAIN  57  54  89 N16       29.72S FOG
MINOT          CLOUDY    74  65  73 SE10      29.68S
MINOT AFB      PTSUNNY   73  65  76 S13       29.67S
BISMARCK       MOSUNNY   76  60  57 S18G29    29.70F
DICKINSON      MOSUNNY   67  53  61 S18       29.67S
GARRISON         N/A     76  67  73 SE9G21    29.67F
HETTINGER ARPT MOSUNNY   68  49  50 SW21G30   29.73S
JAMESTOWN      CLOUDY    73  67  81 S14       29.76F
CARRINGTON     CLOUDY    73  68  83 S17G25    29.77F
HAZEN          MOCLDY    73  59  60 S13       29.69F
RUGBY          FAIR      73  68  83 SE7       29.71F
STANLEY        CLOUDY    66  66 100 NE5       29.71F FOG
$$

CITY           SKY/WX    TMP DP  RH WIND       PRES   REMARKS
GRAND FORKS    CLOUDY    77  66  68 SE22      29.79F
GRAND FORKS AF CLOUDY    75  67  77 S13       29.79F
DEVILS LAKE    CLOUDY    70  66  87 SE12      29.76F
FARGO          CLOUDY    79  65  62 SE18G29   29.81F
CANDO          CLOUDY    72  72 100 SE14G20   29.77F
CAVALIER       MOCLDY    72  66  83 SE9       29.80F
GRAFTON        MOCLDY    75  68  78 SE20G26   29.81F
GWINNER        CLOUDY    77  70  78 SE16      29.81F
LANGDON        CLOUDY    70  70 100 SE16G24   29.80F FOG
ROLLA          CLOUDY    70  68  94 SE12G17   29.76F
WALHALLA       FAIR      68  66  94 SE10      29.80F
$$

CITY           SKY/WX    TMP DP  RH WIND       PRES   REMARKS
ABERDEEN       CLOUDY    78  65  63 S17G23    29.78F
MOBRIDGE       SUNNY     77  49  37 S18G26    29.73F
BUFFALO          N/A     62  50  64 SW23      29.67S
RAPID CITY     MOSUNNY   66  43  43 W17G23    29.83F
GLASGOW        LGT RAIN  52  50  93 NW24      29.86F
SIDNEY         LGT RAIN  56  54  93 N21       29.73S FOG
WOLF POINT     LGT RAIN  57  52  83 N15       29.82S
GLENDIVE       LGT RAIN  53  52  96 N23G32    29.75S FOG
MILES CITY     LGT RAIN  51  49  92 NW21      29.84S
BAKER          LGT RAIN  54  52  93 NW21G28   29.72S
$$

CITY           SKY/WX    TMP DP  RH WIND       PRES   REMARKS
BILLINGS       PTSUNNY   60  36  40 NW29G44   30.00R
GREAT FALLS    PTSUNNY   63  35  35 NW20G31   30.11R
$$




USA.gov is the U.S. government's official web portal to all federal, state and local government web resources and services.